This demonstration page uses our WeatherBlox Daily Observations layout. Learn more.

Left ArrowRight Arrow

Hourly Observations for November 1, 2015

Temp ( °F °C ) Dew Point ( °F °C ) Humidity (%) Winds ( mph kmh ) Pressure ( in mb ) Visibility ( mi km ) Precip ( " mm )
10:53 am 10:53 Sunny 66 19 45 7 46 46 Calm 30.00 1016 8 13 0.00 0.00
11:06 am 11:06 Hazy 68 20 46 8 46 46 Calm 29.97 1015 2 2 0.00 0.00
11:16 am 11:16 Hazy 70 21 46 8 43 43 WSW 3 6 29.97 1015 1 1 0.00 0.00
11:53 am 11:53 Hazy 71 21.7 46 7.8 41 41 Calm 29.98 1015 1 1 0.00 0.00
12:21 pm 12:21 Hazy 71 21.7 45 7.2 39 39 W 6 9 29.94 1014 3 4 0.00 0.00
12:29 pm 12:29 Hazy 72 22.2 43 6.1 35 35 Calm 29.94 1014 1 1 0.00 0.00
12:43 pm 12:43 Hazy 73 22.8 42 5.6 33 33 Calm 29.88 1012 3 4 0.00 0.00
12:53 pm 12:53 Hazy 72 22.2 43 6.1 35 35 SW 6 9 29.95 1014 3 5 0.00 0.00
1:21 pm 13:21 Hazy 73 22.8 41 5 32 32 SW 3 6 29.88 1012 1 1 0.00 0.00
1:34 pm 13:34 Hazy 73 23 41 5 31 31 WNW 6 9 29.85 1011 2 3 0.00 0.00
1:41 pm 13:41 Hazy 74 23.3 40 4.4 29 29 NNW 6 9 29.85 1011 5 8 0.00 0.00
1:53 pm 13:53 Hazy 74 23.3 40 4.4 29 29 W 6 9 29.93 1014 4 6 0.00 0.00
2:09 pm 14:09 Hazy 75 23.9 42 5.6 31 31 undefined N/A 29.85 1011 2 3 0.00 0.00
2:53 pm 14:53 Hazy 75 23.9 39 3.9 27 27 W 7 11 29.91 1013 2 3 0.00 0.00
3:13 pm 15:13 Hazy 76 24.4 38 3.3 25 25 NW 3 6 29.85 1011 3 4 0.00 0.00
3:26 pm 15:26 Hazy 76 24.4 38 3.3 25 25 WSW 10 17 29.85 1011 1 2 0.00 0.00
3:53 pm 15:53 Sunny 76 24.4 38 3.3 25 25 SW 3 6 29.91 1013 N/A 0.00 0.00
4:53 pm 16:53 Sunny 76 24.4 39 3.9 26 26 W 7 11 29.90 1012 N/A 0.00 0.00
5:53 pm 17:53 undefined 68 20 43 6 40 40 N 6 9 29.85 1011 10 16 0.00 0.00
6:53 pm 18:53 Clear 66 18.9 46 7.8 49 49 SE 5 7 29.92 1013 N/A 0.00 0.00
7:53 pm 19:53 Clear 61 16.1 47 8.3 60 60 SE 7 11 29.93 1014 N/A 0.00 0.00
8:53 pm 20:53 Clear 59 15 45 7.2 60 60 SSE 6 9 29.93 1013 N/A 0.00 0.00
9:53 pm 21:53 Clear 56 13.3 45 7.2 67 67 S 6 9 29.93 1013 N/A 0.00 0.00
10:53 pm 22:53 Clear 54 12.2 44 6.7 69 69 SSE 8 13 29.91 1013 N/A 0.00 0.00
11:53 pm 23:53 Clear 51 10.6 44 6.7 77 77 SSW 5 7 29.90 1012 N/A 0.00 0.00

Powered by AerisWeather